| time (UTC) | temp C | wind direction | speed KPH | gust KPH | rain 1hr cm | rain 24hr cm | rain mn cm | humidity % | barometer mb |
| 20260505153052 | 12 | 224 | 0.0 | 1.6 | 0.00 | 0.00 | 0.00 | 86 | 1016.6 |
| 20260505151557 | 12 | 0 | 0.0 | 1.6 | 0.00 | 0.00 | 0.00 | 89 | 1016.5 |
| 20260505124545 | 11 | 0 | 0.0 | 1.6 | 0.00 | 0.00 | 0.00 | 89 | 1015.4 |
| 20260505123051 | 11 | 0 | 0.0 | 1.6 | 0.00 | 0.00 | 0.00 | 89 | 1015.3 |
| 20260505121606 | 11 | 181 | 0.0 | 1.6 | 0.00 | 0.00 | 0.00 | 90 | 1015.4 |
| 20260505120047 | 11 | 0 | 0.0 | 1.6 | 0.00 | 0.00 | 0.00 | 89 | 1015.4 |
| 20260505114544 | 11 | 0 | 0.0 | 3.2 | 0.00 | 0.00 | 0.00 | 90 | 1015.3 |
| 20260505113045 | 11 | 189 | 0.0 | 1.6 | 0.00 | 0.00 | 0.00 | 90 | 1015.4 |
| 20260505111545 | 11 | 188 | 0.0 | 6.4 | 0.00 | 0.00 | 0.00 | 91 | 1015.2 |
| 20260505101553 | 10 | 0 | 0.0 | 0.0 | 0.00 | 0.00 | 0.00 | 93 | 1015.0 |
| 20260505100043 | 10 | 0 | 0.0 | 1.6 | 0.00 | 0.00 | 0.00 | 93 | 1014.8 |
| 20260505094549 | 10 | 0 | 0.0 | 1.6 | 0.00 | 0.00 | 0.00 | 93 | 1014.9 |
| 20260505093048 | 10 | 0 | 0.0 | 1.6 | 0.00 | 0.00 | 0.00 | 93 | 1014.7 |
| 20260505091544 | 10 | 0 | 0.0 | 1.6 | 0.00 | 0.00 | 0.00 | 93 | 1014.8 |
| 20260505090057 | 10 | 0 | 0.0 | 3.2 | 0.00 | 0.00 | 0.00 | 92 | 1014.6 |
| 20260505084549 | 10 | 211 | 0.0 | 1.6 | 0.00 | 0.00 | 0.00 | 92 | 1014.7 |
| 20260505083056 | 10 | 0 | 0.0 | 1.6 | 0.00 | 0.00 | 0.00 | 92 | 1014.6 |
| 20260505081545 | 10 | 198 | 0.0 | 1.6 | 0.00 | 0.00 | 0.00 | 91 | 1014.5 |
| 20260505080047 | 10 | 0 | 0.0 | 1.6 | 0.00 | 0.00 | 0.00 | 90 | 1014.5 |
| 20260505074544 | 11 | 0 | 0.0 | 1.6 | 0.00 | 0.00 | 0.00 | 90 | 1014.4 |
| 20260505073048 | 11 | 223 | 0.0 | 4.8 | 0.00 | 0.00 | 0.00 | 90 | 1014.2 |
| 20260505071547 | 11 | 0 | 0.0 | 8.0 | 0.00 | 0.00 | 0.00 | 90 | 1014.2 |
| 20260505070049 | 11 | 240 | 0.0 | 6.4 | 0.00 | 0.00 | 0.00 | 89 | 1014.1 |
| 20260505064546 | 11 | 219 | 0.0 | 3.2 | 0.00 | 0.00 | 0.00 | 89 | 1013.9 |
| 20260505063044 | 11 | 0 | 0.0 | 9.7 | 0.00 | 0.00 | 0.00 | 88 | 1013.9 |
| 20260505061557 | 11 | 209 | 0.0 | 1.6 | 0.00 | 0.00 | 0.00 | 87 | 1013.8 |
| 20260505060050 | 12 | 242 | 0.0 | 4.8 | 0.00 | 0.00 | 0.00 | 86 | 1013.8 |
| 20260505054548 | 12 | 229 | 0.0 | 6.4 | 0.00 | 0.00 | 0.00 | 85 | 1013.8 |
| 20260505053049 | 12 | 225 | 1.6 | 6.4 | 0.00 | 0.00 | 0.00 | 85 | 1013.2 |
| 20260505051546 | 12 | 0 | 0.0 | 3.2 | 0.00 | 0.00 | 0.00 | 84 | 1013.3 |
| 20260505041543 | 13 | 0 | 0.0 | 3.2 | 0.00 | 0.00 | 0.00 | 81 | 1012.7 |
| 20260505040050 | 13 | 0 | 0.0 | 1.6 | 0.00 | 0.00 | 0.00 | 79 | 1012.5 |
| 20260505034546 | 14 | 0 | 0.0 | 4.8 | 0.00 | 0.00 | 0.00 | 78 | 1012.3 |
| 20260505033104 | 15 | 258 | 0.0 | 8.0 | 0.00 | 0.00 | 0.00 | 76 | 1012.1 |
| 20260505031544 | 16 | 256 | 1.6 | 8.0 | 0.00 | 0.00 | 0.00 | 74 | 1011.9 |
| 20260505030045 | 16 | 224 | 3.2 | 16.1 | 0.00 | 0.00 | 0.00 | 72 | 1011.8 |
| 20260505024544 | 17 | 264 | 3.2 | 16.1 | 0.00 | 0.00 | 0.00 | 70 | 1011.8 |
| 20260505023058 | 18 | 333 | 6.4 | 20.9 | 0.00 | 0.00 | 0.00 | 67 | 1011.6 |
| 20260505021546 | 19 | 246 | 3.2 | 12.9 | 0.00 | 0.00 | 0.00 | 67 | 1011.5 |
| 20260505020049 | 20 | 300 | 1.6 | 11.3 | 0.00 | 0.00 | 0.00 | 66 | 1011.5 |
| 20260505014544 | 21 | 279 | 0.0 | 14.5 | 0.00 | 0.00 | 0.00 | 66 | 1011.5 |
| 20260505013045 | 21 | 296 | 1.6 | 9.7 | 0.00 | 0.00 | 0.00 | 64 | 1011.6 |
| 20260505011551 | 21 | 292 | 4.8 | 12.9 | 0.00 | 0.00 | 0.00 | 64 | 1011.5 |
| 20260505010045 | 22 | 0 | 9.7 | 19.3 | 0.00 | 0.00 | 0.00 | 63 | 1011.6 |
| 20260505004550 | 22 | 269 | 6.4 | 16.1 | 0.00 | 0.00 | 0.00 | 63 | 1011.6 |
| 20260505003047 | 23 | 206 | 4.8 | 12.9 | 0.00 | 0.00 | 0.00 | 62 | 1011.5 |
| 20260505001547 | 23 | 275 | 1.6 | 12.9 | 0.00 | 0.00 | 0.00 | 62 | 1011.4 |
| 20260505000048 | 23 | 0 | 3.2 | 14.5 | 0.00 | 0.00 | 0.00 | 63 | 1011.8 |
| 20260504234612 | 23 | 159 | 4.8 | 14.5 | 0.00 | 0.00 | 0.00 | 61 | 1011.9 |
| 20260504233048 | 23 | 173 | 3.2 | 11.3 | 0.00 | 0.00 | 0.00 | 63 | 1012.0 |
| 20260504231554 | 22 | 165 | 6.4 | 14.5 | 0.00 | 0.00 | 0.00 | 62 | 1012.1 |
| 20260504230046 | 22 | 160 | 6.4 | 14.5 | 0.00 | 0.00 | 0.00 | 61 | 1012.3 |
| 20260504224543 | 22 | 249 | 4.8 | 12.9 | 0.00 | 0.00 | 0.00 | 62 | 1012.3 |
| 20260504223046 | 22 | 215 | 3.2 | 14.5 | 0.00 | 0.00 | 0.00 | 64 | 1012.4 |
| 20260504221604 | 22 | 128 | 3.2 | 14.5 | 0.00 | 0.00 | 0.00 | 64 | 1012.5 |
| 20260504220043 | 21 | 189 | 9.7 | 16.1 | 0.00 | 0.00 | 0.00 | 63 | 1012.6 |
| 20260504214550 | 21 | 213 | 6.4 | 14.5 | 0.00 | 0.00 | 0.00 | 63 | 1012.8 |
| 20260504213051 | 21 | 210 | 11.3 | 16.1 | 0.00 | 0.00 | 0.00 | 65 | 1013.0 |
| 20260504211546 | 21 | 226 | 4.8 | 17.7 | 0.00 | 0.00 | 0.00 | 66 | 1013.1 |
| 20260504210056 | 20 | 186 | 4.8 | 12.9 | 0.00 | 0.00 | 0.00 | 65 | 1013.3 |
| 20260504204619 | 20 | 103 | 4.8 | 16.1 | 0.00 | 0.00 | 0.00 | 67 | 1013.5 |
| 20260504203050 | 20 | 119 | 3.2 | 12.9 | 0.00 | 0.00 | 0.00 | 67 | 1013.6 |
| 20260504201543 | 18 | 186 | 4.8 | 12.9 | 0.00 | 0.00 | 0.00 | 68 | 1013.6 |
| 20260504200053 | 18 | 170 | 6.4 | 14.5 | 0.00 | 0.00 | 0.00 | 69 | 1013.8 |
| 20260504194554 | 18 | 129 | 4.8 | 12.9 | 0.00 | 0.00 | 0.00 | 70 | 1013.6 |
| 20260504193046 | 18 | 229 | 3.2 | 14.5 | 0.00 | 0.00 | 0.00 | 70 | 1013.8 |
| 20260504191549 | 17 | 167 | 4.8 | 12.9 | 0.00 | 0.00 | 0.00 | 71 | 1014.2 |
| 20260504190055 | 17 | 226 | 3.2 | 11.3 | 0.00 | 0.00 | 0.00 | 72 | 1014.2 |
| 20260504184600 | 17 | 263 | 3.2 | 11.3 | 0.00 | 0.00 | 0.00 | 74 | 1014.2 |
| 20260504183053 | 16 | 217 | 3.2 | 9.7 | 0.00 | 0.00 | 0.00 | 75 | 1014.1 |
| 20260504181544 | 16 | 213 | 1.6 | 12.9 | 0.00 | 0.00 | 0.00 | 77 | 1014.2 |
| 20260504180043 | 15 | 135 | 6.4 | 12.9 | 0.00 | 0.00 | 0.00 | 78 | 1014.2 |
| 20260504174550 | 15 | 161 | 6.4 | 12.9 | 0.00 | 0.00 | 0.00 | 79 | 1014.3 |
| 20260504173045 | 15 | 252 | 6.4 | 14.5 | 0.00 | 0.00 | 0.00 | 80 | 1014.2 |
| 20260504171548 | 14 | 177 | 4.8 | 14.5 | 0.00 | 0.00 | 0.00 | 81 | 1014.1 |